Starlink 2100

operational
NORAD ID: 47380 Int'l Des: 2021-005 Owner: SPXS Country: US Constellation: starlink
LEOCIRCULARSTARLINK_TYPE

关于 Starlink 2100

正在加载描述...

实时位置

正在加载3D地球...

即将过境

高度历史

Altitude vs Time

uPlot chart will show altitude changes over time

两行轨道根数

1 47380U 21005AH 26062.43285935 .00000718 00000-0 67117-4 0 9997
2 47380 53.0556 59.7072 0001441 89.7345 270.3809 15.06401664282525
Epoch: Mar 3, 2026 • Age: 29 hours

当前状态

高度 556.5 km
速度 7.58 km/s
星下点 -28.86°S, 25.68°E
发射日期 Jan 20, 2021
运行时间 5.1 years
类型 internet

技术详情

分类 Payload
质量 260.00 kg
干质量 248.00 kg
总质量 260.00 kg
长度 0.20 m
直径 2.80 m
跨度 9.00 m
形状 Box + pan
制造商 SPXS
平台类型 Starlink
阶段状态 In Orbit
所有者/国家 SPXS/US

大型星座

Loading constellations...